GFSSE_prec_precacc12_153.txt.gz
Total_Precipitation_Accumulation
0.00 0.00 0.00 0.00 0.00 0.00 0.00 0.00 0.00 0.00 0.00 0.00 0.00 0.00 0.00 0.00 0.00 0.00 0.00 0.00 0.00 0.01 0.01 0.01 0.02 0.02 0.01 0.02 0.05 0.05 0.02 0.00 0.01 0.03 0.06 0.04 0.05 0.02 0.02 0.06 0.14 0.46 0.78
0.00 0.00 0.00 0.00 0.00 0.00 0.00 0.00 0.00 0.00 0.00 0.00 0.00 0.00 0.00 0.00 0.00 0.00 0.00 0.00 0.02 0.02 0.02 0.04 0.05 0.04 0.03 0.02 0.03 0.04 0.01 0.00 0.00 0.01 0.05 0.03 0.05 0.02 0.18 0.22 0.34 0.41 0.54
0.00 0.00 0.00 0.00 0.00 0.00 0.00 0.00 0.00 0.00 0.00 0.00 0.00 0.00 0.00 0.00 0.00 0.00 0.00 0.00 0.03 0.04 0.06 0.05 0.05 0.06 0.04 0.03 0.05 0.05 0.03 0.01 0.04 0.03 0.03 0.02 0.02 0.05 0.20 0.22 0.36 0.34 0.51
0.00 0.00 0.00 0.00 0.00 0.00 0.00 0.00 0.00 0.00 0.00 0.00 0.00 0.00 0.00 0.00 0.00 0.01 0.02 0.01 0.03 0.04 0.04 0.05 0.06 0.05 0.03 0.03 0.04 0.06 0.10 0.08 0.02 0.01 0.00 0.00 0.00 0.04 0.11 0.16 0.18 0.31 0.43
0.00 0.00 0.00 0.00 0.00 0.00 0.00 0.00 0.00 0.00 0.00 0.00 0.00 0.00 0.00 0.00 0.03 0.04 0.02 0.01 0.03 0.04 0.04 0.04 0.06 0.05 0.03 0.03 0.01 0.07 0.11 0.03 0.01 0.11 0.17 0.03 0.03 0.00 0.04 0.15 0.31 0.35 0.44
0.00 0.00 0.01 0.04 0.02 0.00 0.00 0.00 0.00 0.00 0.00 0.00 0.00 0.00 0.00 0.02 0.03 0.01 0.00 0.03 0.05 0.03 0.02 0.01 0.03 0.05 0.00 0.02 0.08 0.12 0.10 0.00 0.18 0.41 0.25 0.02 0.04 0.02 0.01 0.09 0.26 0.42 0.30
0.00 0.00 0.00 0.01 0.04 0.02 0.00 0.00 0.00 0.00 0.00 0.00 0.00 0.00 0.00 0.01 0.00 0.01 0.01 0.03 0.06 0.04 0.03 0.03 0.02 0.01 0.00 0.00 0.10 0.15 0.09 0.01 0.15 0.59 0.46 0.14 0.16 0.27 0.01 0.11 0.29 0.31 0.21
0.00 0.00 0.00 0.00 0.00 0.00 0.00 0.00 0.00 0.00 0.00 0.00 0.00 0.00 0.00 0.00 0.00 0.01 0.01 0.02 0.04 0.02 0.01 0.03 0.00 0.00 0.00 0.05 0.13 0.15 0.15 0.08 0.34 1.45 1.12 0.35 0.33 0.41 0.09 0.19 0.41 0.27 0.15
0.00 0.00 0.00 0.00 0.00 0.00 0.00 0.00 0.00 0.00 0.00 0.00 0.00 0.00 0.00 0.00 0.00 0.00 0.01 0.01 0.01 0.00 0.00 0.01 0.00 0.00 0.01 0.08 0.20 0.30 0.31 0.17 0.67 1.91 1.03 0.84 0.37 0.40 0.32 0.25 0.31 0.15 0.08
0.00 0.00 0.00 0.00 0.00 0.00 0.00 0.00 0.00 0.00 0.00 0.00 0.00 0.00 0.00 0.00 0.00 0.00 0.01 0.01 0.01 0.00 0.00 0.00 0.00 0.00 0.01 0.07 0.21 0.24 0.30 0.07 0.26 0.28 0.13 0.18 0.28 0.34 0.31 0.32 0.16 0.11 0.06
0.00 0.00 0.00 0.01 0.03 0.01 0.01 0.01 0.00 0.00 0.00 0.00 0.00 0.00 0.00 0.00 0.00 0.00 0.00 0.00 0.00 0.00 0.00 0.01 0.00 0.00 0.01 0.03 0.16 0.21 0.17 0.07 0.34 0.48 0.13 0.20 0.36 0.42 0.18 0.21 0.12 0.06 0.01
0.00 0.00 0.00 0.00 0.04 0.08 0.12 0.10 0.05 0.01 0.02 0.00 0.00 0.00 0.00 0.00 0.00 0.00 0.00 0.00 0.00 0.00 0.00 0.00 0.01 0.03 0.01 0.01 0.08 0.14 0.05 0.30 0.71 1.18 0.45 0.26 0.48 0.33 0.15 0.11 0.08 0.01 0.00
0.00 0.00 0.00 0.00 0.00 0.06 0.08 0.11 0.11 0.07 0.05 0.02 0.00 0.00 0.00 0.00 0.00 0.00 0.00 0.00 0.00 0.00 0.00 0.00 0.00 0.00 0.00 0.00 0.01 0.06 0.06 0.33 0.32 1.29 0.90 0.43 0.62 0.46 0.25 0.05 0.02 0.00 0.00
0.00 0.00 0.00 0.00 0.00 0.01 0.05 0.11 0.11 0.08 0.06 0.06 0.01 0.01 0.00 0.00 0.00 0.00 0.00 0.00 0.00 0.00 0.00 0.00 0.00 0.00 0.00 0.11 0.14 0.03 0.01 0.12 0.17 0.48 0.58 0.43 0.52 0.55 0.27 0.06 0.00 0.00 0.00
0.00 0.00 0.00 0.00 0.00 0.00 0.02 0.05 0.08 0.05 0.04 0.06 0.02 0.01 0.01 0.00 0.01 0.01 0.00 0.00 0.00 0.00 0.00 0.00 0.00 0.02 0.06 0.10 0.20 0.07 0.04 0.12 0.11 0.09 0.23 0.16 0.26 0.42 0.15 0.04 0.00 0.00 0.00
0.00 0.00 0.00 0.00 0.00 0.00 0.00 0.02 0.04 0.02 0.02 0.02 0.02 0.03 0.01 0.01 0.01 0.01 0.01 0.01 0.00 0.01 0.00 0.00 0.00 0.03 0.07 0.06 0.12 0.23 0.14 0.08 0.08 0.08 0.15 0.15 0.07 0.08 0.14 0.10 0.03 0.00 0.00
0.00 0.00 0.00 0.00 0.00 0.00 0.00 0.00 0.00 0.00 0.03 0.05 0.02 0.02 0.02 0.02 0.02 0.03 0.02 0.01 0.01 0.01 0.01 0.01 0.01 0.04 0.11 0.10 0.15 0.36 0.33 0.09 0.11 0.10 0.07 0.02 0.00 0.09 0.16 0.06 0.13 0.09 0.03
0.00 0.00 0.00 0.00 0.00 0.00 0.00 0.00 0.00 0.00 0.01 0.07 0.03 0.01 0.01 0.04 0.05 0.04 0.04 0.02 0.01 0.01 0.02 0.02 0.01 0.03 0.08 0.11 0.10 0.24 0.30 0.25 0.09 0.07 0.09 0.00 0.00 0.01 0.08 0.06 0.04 0.09 0.14
0.00 0.00 0.00 0.00 0.00 0.00 0.00 0.00 0.00 0.02 0.01 0.02 0.08 0.04 0.02 0.04 0.06 0.07 0.04 0.03 0.06 0.02 0.04 0.06 0.03 0.02 0.04 0.05 0.10 0.21 0.27 0.29 0.19 0.18 0.06 0.01 0.00 0.03 0.03 0.08 0.13 0.12 0.06
0.00 0.00 0.00 0.00 0.00 0.00 0.00 0.00 0.00 0.02 0.04 0.02 0.06 0.11 0.08 0.05 0.10 0.09 0.05 0.05 0.10 0.07 0.05 0.07 0.02 0.04 0.02 0.02 0.07 0.10 0.14 0.18 0.21 0.25 0.25 0.10 0.00 0.03 0.05 0.07 0.05 0.04 0.10
0.00 0.00 0.00 0.00 0.00 0.00 0.00 0.00 0.00 0.00 0.03 0.08 0.04 0.10 0.20 0.16 0.11 0.09 0.08 0.10 0.11 0.11 0.09 0.09 0.10 0.04 0.02 0.03 0.06 0.05 0.05 0.11 0.12 0.08 0.07 0.06 0.01 0.00 0.03 0.05 0.05 0.01 0.02
0.00 0.00 0.00 0.00 0.00 0.00 0.00 0.00 0.00 0.00 0.00 0.02 0.06 0.06 0.19 0.26 0.15 0.08 0.12 0.13 0.16 0.17 0.21 0.12 0.08 0.03 0.02 0.05 0.04 0.03 0.03 0.05 0.06 0.08 0.05 0.05 0.03 0.01 0.01 0.03 0.05 0.03 0.03
0.00 0.00 0.00 0.00 0.00 0.00 0.00 0.00 0.00 0.00 0.00 0.02 0.07 0.12 0.11 0.39 0.20 0.11 0.20 0.24 0.22 0.21 0.21 0.16 0.13 0.08 0.03 0.02 0.05 0.01 0.01 0.02 0.02 0.03 0.04 0.03 0.02 0.01 0.00 0.01 0.01 0.01 0.02
0.00 0.00 0.00 0.00 0.00 0.00 0.00 0.00 0.00 0.00 0.00 0.01 0.05 0.11 0.17 0.35 0.27 0.22 0.27 0.26 0.23 0.18 0.16 0.14 0.15 0.12 0.14 0.02 0.05 0.03 0.00 0.00 0.00 0.01 0.01 0.01 0.02 0.01 0.01 0.00 0.00 0.00 0.01
0.00 0.00 0.00 0.00 0.00 0.00 0.00 0.00 0.00 0.00 0.00 0.00 0.00 0.07 0.24 0.34 0.59 0.41 0.37 0.45 0.35 0.22 0.18 0.17 0.16 0.17 0.16 0.08 0.01 0.01 0.00 0.00 0.00 0.00 0.00 0.01 0.01 0.01 0.01 0.01 0.00 0.00 0.00
0.00 0.00 0.00 0.00 0.00 0.00 0.00 0.00 0.00 0.00 0.00 0.00 0.00 0.01 0.14 0.31 0.33 0.51 0.97 0.92 0.81 0.73 0.56 0.46 0.29 0.17 0.15 0.16 0.07 0.04 0.01 0.00 0.00 0.00 0.00 0.00 0.00 0.00 0.00 0.00 0.00 0.01 0.00

GFSSE_prec_precacc12_156.txt.gz
Total_Precipitation_Accumulation
0.00 0.00 0.00 0.00 0.00 0.00 0.00 0.00 0.00 0.00 0.00 0.00 0.00 0.00 0.00 0.00 0.00 0.00 0.00 0.00 0.00 0.01 0.01 0.01 0.01 0.00 0.01 0.02 0.03 0.06 0.01 0.00 0.00 0.00 0.00 0.02 0.02 0.01 0.03 0.12 0.08 0.11 0.37
0.00 0.00 0.00 0.00 0.00 0.00 0.00 0.00 0.00 0.00 0.00 0.00 0.00 0.00 0.00 0.00 0.00 0.00 0.00 0.00 0.02 0.01 0.01 0.02 0.01 0.01 0.01 0.01 0.01 0.03 0.00 0.00 0.00 0.01 0.03 0.04 0.05 0.01 0.20 0.17 0.18 0.15 0.24
0.00 0.00 0.01 0.00 0.00 0.00 0.00 0.00 0.00 0.00 0.00 0.00 0.00 0.00 0.00 0.00 0.00 0.00 0.00 0.01 0.04 0.03 0.05 0.03 0.01 0.03 0.01 0.02 0.03 0.04 0.03 0.01 0.04 0.04 0.05 0.05 0.04 0.07 0.20 0.18 0.29 0.24 0.27
0.00 0.00 0.00 0.00 0.00 0.00 0.00 0.00 0.00 0.00 0.00 0.00 0.00 0.00 0.00 0.00 0.00 0.00 0.00 0.00 0.03 0.04 0.04 0.03 0.02 0.04 0.02 0.03 0.03 0.06 0.10 0.09 0.05 0.01 0.01 0.01 0.00 0.05 0.09 0.11 0.19 0.23 0.30
0.00 0.00 0.00 0.00 0.00 0.00 0.00 0.00 0.00 0.00 0.00 0.00 0.00 0.00 0.00 0.00 0.01 0.01 0.00 0.00 0.02 0.04 0.02 0.00 0.03 0.02 0.02 0.03 0.03 0.07 0.11 0.03 0.04 0.05 0.07 0.01 0.03 0.00 0.03 0.10 0.25 0.22 0.33
0.00 0.00 0.01 0.05 0.03 0.01 0.00 0.00 0.00 0.00 0.00 0.00 0.00 0.00 0.00 0.01 0.02 0.00 0.00 0.00 0.03 0.02 0.01 0.01 0.02 0.04 0.00 0.02 0.12 0.12 0.10 0.03 0.24 0.32 0.12 0.01 0.04 0.02 0.01 0.09 0.23 0.29 0.29
0.00 0.00 0.00 0.02 0.04 0.03 0.01 0.00 0.00 0.00 0.00 0.00 0.00 0.00 0.00 0.01 0.00 0.00 0.00 0.00 0.01 0.01 0.02 0.03 0.02 0.01 0.00 0.01 0.12 0.15 0.09 0.04 0.12 0.39 0.35 0.14 0.14 0.21 0.00 0.06 0.22 0.31 0.35
0.00 0.00 0.00 0.00 0.00 0.00 0.00 0.01 0.00 0.00 0.00 0.00 0.00 0.00 0.00 0.00 0.00 0.00 0.00 0.00 0.00 0.01 0.01 0.02 0.00 0.00 0.00 0.06 0.14 0.13 0.11 0.06 0.10 0.35 0.66 0.30 0.32 0.37 0.13 0.21 0.36 0.30 0.30
0.00 0.00 0.00 0.00 0.00 0.00 0.00 0.00 0.00 0.00 0.00 0.00 0.00 0.00 0.00 0.00 0.00 0.00 0.01 0.00 0.00 0.00 0.00 0.00 0.00 0.00 0.01 0.05 0.18 0.26 0.27 0.20 0.11 0.29 0.35 0.12 0.24 0.44 0.40 0.32 0.33 0.26 0.17
0.00 0.00 0.00 0.00 0.00 0.00 0.00 0.00 0.00 0.00 0.00 0.00 0.00 0.00 0.00 0.00 0.01 0.01 0.01 0.01 0.01 0.00 0.00 0.00 0.00 0.00 0.01 0.04 0.17 0.22 0.35 0.19 0.14 0.09 0.05 0.06 0.26 0.48 0.55 0.39 0.19 0.19 0.17
0.00 0.00 0.00 0.01 0.03 0.01 0.01 0.02 0.01 0.02 0.01 0.00 0.00 0.00 0.00 0.00 0.00 0.01 0.00 0.00 0.00 0.00 0.00 0.00 0.00 0.00 0.01 0.02 0.14 0.21 0.20 0.08 0.23 0.26 0.05 0.06 0.26 0.57 0.42 0.31 0.22 0.12 0.06
0.00 0.00 0.00 0.00 0.04 0.08 0.12 0.10 0.05 0.02 0.04 0.02 0.00 0.00 0.00 0.00 0.00 0.01 0.01 0.01 0.01 0.01 0.01 0.00 0.00 0.00 0.01 0.01 0.07 0.14 0.04 0.08 0.19 0.79 0.36 0.19 0.39 0.44 0.30 0.20 0.17 0.10 0.04
0.00 0.00 0.00 0.00 0.00 0.06 0.08 0.11 0.11 0.07 0.05 0.02 0.00 0.00 0.00 0.00 0.00 0.00 0.01 0.01 0.01 0.01 0.01 0.01 0.00 0.00 0.00 0.00 0.00 0.06 0.03 0.05 0.05 0.75 0.76 0.35 0.43 0.61 0.52 0.24 0.12 0.05 0.01
0.00 0.00 0.00 0.00 0.00 0.01 0.05 0.11 0.11 0.08 0.06 0.06 0.01 0.00 0.00 0.00 0.00 0.00 0.00 0.01 0.01 0.02 0.01 0.01 0.01 0.00 0.00 0.01 0.09 0.03 0.00 0.09 0.05 0.10 0.31 0.30 0.42 0.57 0.51 0.22 0.12 0.03 0.00
0.00 0.00 0.00 0.00 0.00 0.00 0.01 0.04 0.08 0.05 0.04 0.06 0.02 0.01 0.01 0.01 0.01 0.01 0.01 0.01 0.01 0.01 0.02 0.02 0.02 0.01 0.00 0.01 0.15 0.07 0.04 0.11 0.04 0.01 0.01 0.03 0.20 0.45 0.31 0.17 0.08 0.04 0.01
0.00 0.00 0.00 0.00 0.00 0.00 0.00 0.01 0.03 0.02 0.02 0.02 0.02 0.03 0.01 0.01 0.01 0.01 0.01 0.01 0.01 0.02 0.02 0.02 0.02 0.01 0.01 0.02 0.09 0.21 0.10 0.07 0.05 0.03 0.00 0.00 0.02 0.11 0.28 0.23 0.10 0.12 0.02
0.00 0.00 0.00 0.00 0.00 0.00 0.00 0.00 0.00 0.00 0.03 0.05 0.02 0.02 0.02 0.02 0.02 0.03 0.02 0.01 0.02 0.02 0.03 0.03 0.03 0.03 0.02 0.03 0.11 0.35 0.29 0.08 0.09 0.02 0.00 0.00 0.00 0.10 0.29 0.36 0.27 0.07 0.02
0.00 0.00 0.00 0.00 0.00 0.00 0.00 0.00 0.00 0.00 0.01 0.07 0.03 0.01 0.01 0.04 0.05 0.04 0.04 0.02 0.02 0.02 0.04 0.04 0.03 0.03 0.03 0.03 0.05 0.23 0.28 0.24 0.07 0.01 0.00 0.00 0.00 0.01 0.14 0.28 0.28 0.10 0.03
0.00 0.00 0.00 0.00 0.00 0.00 0.00 0.00 0.00 0.00 0.00 0.02 0.08 0.04 0.02 0.04 0.06 0.07 0.04 0.03 0.06 0.03 0.05 0.09 0.05 0.04 0.02 0.03 0.04 0.15 0.21 0.24 0.07 0.07 0.02 0.00 0.00 0.03 0.04 0.24 0.33 0.19 0.06
0.00 0.00 0.00 0.00 0.00 0.00 0.00 0.00 0.00 0.00 0.00 0.00 0.05 0.11 0.08 0.05 0.10 0.09 0.05 0.05 0.10 0.07 0.05 0.08 0.05 0.10 0.06 0.04 0.05 0.08 0.09 0.14 0.11 0.09 0.14 0.06 0.00 0.03 0.05 0.12 0.22 0.09 0.11
0.00 0.00 0.00 0.00 0.00 0.00 0.00 0.00 0.00 0.00 0.00 0.00 0.00 0.06 0.19 0.16 0.11 0.09 0.08 0.10 0.11 0.11 0.09 0.10 0.14 0.11 0.10 0.11 0.16 0.09 0.05 0.11 0.10 0.04 0.02 0.02 0.00 0.00 0.03 0.06 0.09 0.05 0.01
0.00 0.00 0.00 0.00 0.00 0.00 0.00 0.00 0.00 0.00 0.00 0.00 0.00 0.00 0.06 0.22 0.15 0.08 0.12 0.13 0.16 0.17 0.22 0.12 0.09 0.07 0.07 0.15 0.15 0.08 0.04 0.06 0.07 0.09 0.04 0.02 0.01 0.01 0.00 0.04 0.06 0.04 0.07
0.00 0.00 0.00 0.00 0.00 0.00 0.00 0.00 0.00 0.00 0.00 0.00 0.00 0.00 0.00 0.14 0.19 0.11 0.20 0.24 0.22 0.21 0.21 0.16 0.13 0.10 0.07 0.08 0.20 0.12 0.04 0.03 0.02 0.03 0.04 0.03 0.01 0.00 0.00 0.01 0.01 0.01 0.04
0.00 0.00 0.00 0.00 0.00 0.00 0.00 0.00 0.00 0.00 0.00 0.00 0.00 0.00 0.00 0.01 0.13 0.22 0.27 0.26 0.23 0.18 0.16 0.14 0.15 0.13 0.19 0.11 0.19 0.20 0.07 0.01 0.01 0.01 0.01 0.01 0.01 0.01 0.00 0.00 0.00 0.00 0.01
0.00 0.00 0.00 0.00 0.00 0.00 0.00 0.00 0.00 0.00 0.00 0.00 0.00 0.00 0.00 0.00 0.07 0.35 0.37 0.45 0.35 0.22 0.19 0.18 0.16 0.18 0.19 0.17 0.12 0.12 0.12 0.02 0.00 0.00 0.00 0.01 0.01 0.01 0.00 0.00 0.00 0.00 0.00
0.00 0.00 0.00 0.00 0.00 0.00 0.00 0.00 0.00 0.00 0.00 0.00 0.00 0.00 0.00 0.00 0.00 0.27 0.91 0.91 0.81 0.74 0.57 0.47 0.29 0.18 0.16 0.21 0.20 0.14 0.05 0.01 0.00 0.00 0.00 0.00 0.00 0.00 0.00 0.00 0.00 0.00 0.00

GFSSE_prec_precacc12_159.txt.gz
Total_Precipitation_Accumulation
0.00 0.00 0.00 0.00 0.00 0.00 0.00 0.00 0.00 0.00 0.00 0.00 0.00 0.00 0.00 0.00 0.00 0.00 0.01 0.01 0.01 0.01 0.01 0.00 0.00 0.00 0.02 0.04 0.04 0.08 0.01 0.00 0.00 0.00 0.01 0.02 0.03 0.01 0.04 0.12 0.09 0.11 0.25
0.01 0.00 0.00 0.00 0.00 0.00 0.00 0.00 0.00 0.00 0.00 0.00 0.00 0.00 0.00 0.00 0.00 0.00 0.01 0.01 0.03 0.01 0.01 0.01 0.00 0.00 0.00 0.02 0.03 0.04 0.01 0.00 0.00 0.00 0.02 0.04 0.05 0.02 0.21 0.20 0.25 0.19 0.22
0.00 0.00 0.01 0.00 0.00 0.00 0.00 0.00 0.00 0.00 0.00 0.00 0.00 0.00 0.00 0.00 0.00 0.00 0.00 0.01 0.04 0.04 0.03 0.01 0.01 0.03 0.01 0.01 0.01 0.02 0.02 0.01 0.04 0.03 0.04 0.05 0.04 0.10 0.21 0.20 0.32 0.28 0.30
0.00 0.00 0.00 0.00 0.00 0.00 0.00 0.00 0.00 0.00 0.00 0.00 0.00 0.00 0.00 0.00 0.00 0.00 0.00 0.00 0.04 0.06 0.05 0.02 0.02 0.03 0.02 0.02 0.02 0.05 0.10 0.09 0.06 0.02 0.01 0.01 0.00 0.05 0.09 0.11 0.20 0.27 0.31
0.00 0.00 0.00 0.00 0.00 0.00 0.00 0.00 0.00 0.00 0.00 0.00 0.00 0.00 0.00 0.00 0.00 0.00 0.00 0.00 0.02 0.03 0.03 0.01 0.03 0.01 0.00 0.02 0.03 0.07 0.11 0.03 0.05 0.04 0.00 0.00 0.03 0.00 0.03 0.09 0.21 0.22 0.19
0.00 0.00 0.01 0.05 0.03 0.01 0.00 0.00 0.00 0.00 0.00 0.00 0.00 0.00 0.00 0.00 0.00 0.00 0.00 0.01 0.03 0.02 0.01 0.02 0.02 0.03 0.00 0.01 0.12 0.12 0.10 0.06 0.15 0.17 0.02 0.00 0.04 0.01 0.00 0.06 0.17 0.20 0.21
0.00 0.00 0.00 0.02 0.04 0.03 0.01 0.00 0.00 0.00 0.00 0.00 0.00 0.00 0.01 0.01 0.00 0.00 0.00 0.00 0.01 0.02 0.01 0.03 0.01 0.01 0.00 0.01 0.12 0.15 0.08 0.06 0.06 0.12 0.06 0.01 0.08 0.13 0.03 0.05 0.11 0.23 0.36
0.00 0.00 0.00 0.00 0.00 0.00 0.00 0.01 0.00 0.00 0.00 0.00 0.00 0.00 0.00 0.01 0.02 0.01 0.01 0.00 0.01 0.00 0.00 0.01 0.00 0.00 0.00 0.03 0.14 0.12 0.04 0.02 0.04 0.06 0.04 0.04 0.14 0.29 0.21 0.31 0.34 0.33 0.33
0.00 0.00 0.00 0.00 0.00 0.00 0.00 0.00 0.00 0.00 0.00 0.00 0.00 0.00 0.00 0.01 0.02 0.03 0.03 0.01 0.00 0.00 0.00 0.00 0.00 0.00 0.00 0.02 0.16 0.11 0.15 0.10 0.08 0.07 0.02 0.00 0.09 0.37 0.59 0.46 0.40 0.31 0.20
0.00 0.00 0.00 0.00 0.00 0.00 0.00 0.00 0.00 0.00 0.00 0.00 0.00 0.00 0.00 0.00 0.01 0.02 0.03 0.03 0.02 0.00 0.00 0.00 0.00 0.00 0.00 0.01 0.11 0.11 0.31 0.19 0.07 0.01 0.00 0.00 0.10 0.44 0.78 0.59 0.33 0.27 0.18
0.00 0.00 0.00 0.01 0.02 0.01 0.01 0.02 0.01 0.02 0.01 0.00 0.00 0.00 0.00 0.00 0.00 0.01 0.01 0.02 0.02 0.01 0.00 0.00 0.00 0.00 0.01 0.02 0.07 0.17 0.19 0.03 0.04 0.03 0.00 0.05 0.18 0.53 0.58 0.49 0.37 0.23 0.09
0.00 0.00 0.00 0.00 0.01 0.04 0.09 0.10 0.05 0.02 0.04 0.02 0.00 0.00 0.00 0.00 0.00 0.01 0.01 0.01 0.02 0.02 0.02 0.01 0.00 0.00 0.01 0.01 0.06 0.10 0.03 0.00 0.02 0.03 0.00 0.04 0.28 0.44 0.47 0.40 0.34 0.25 0.15
0.00 0.00 0.00 0.00 0.00 0.00 0.01 0.07 0.11 0.07 0.05 0.02 0.00 0.00 0.00 0.00 0.00 0.00 0.01 0.01 0.01 0.02 0.02 0.02 0.02 0.00 0.00 0.00 0.00 0.06 0.02 0.00 0.00 0.01 0.03 0.05 0.22 0.57 0.65 0.41 0.44 0.33 0.16
0.00 0.00 0.00 0.00 0.00 0.00 0.00 0.00 0.05 0.08 0.06 0.06 0.01 0.00 0.00 0.00 0.00 0.00 0.00 0.01 0.01 0.02 0.02 0.02 0.02 0.02 0.00 0.00 0.04 0.02 0.00 0.01 0.00 0.00 0.02 0.05 0.17 0.45 0.56 0.42 0.35 0.28 0.19
0.00 0.00 0.00 0.00 0.00 0.00 0.00 0.00 0.00 0.02 0.04 0.06 0.02 0.01 0.01 0.01 0.01 0.01 0.01 0.01 0.01 0.02 0.02 0.02 0.02 0.01 0.01 0.00 0.11 0.06 0.00 0.01 0.01 0.00 0.00 0.00 0.07 0.23 0.35 0.27 0.32 0.30 0.17
0.00 0.00 0.00 0.00 0.00 0.00 0.00 0.00 0.00 0.00 0.01 0.01 0.02 0.03 0.01 0.01 0.01 0.01 0.01 0.01 0.01 0.02 0.02 0.03 0.02 0.01 0.01 0.00 0.05 0.14 0.05 0.00 0.00 0.00 0.00 0.00 0.01 0.09 0.32 0.33 0.16 0.25 0.17
0.00 0.00 0.00 0.00 0.00 0.00 0.00 0.00 0.00 0.00 0.00 0.00 0.01 0.02 0.02 0.02 0.02 0.03 0.02 0.01 0.02 0.02 0.03 0.04 0.04 0.03 0.02 0.02 0.02 0.20 0.20 0.01 0.00 0.00 0.00 0.00 0.00 0.07 0.33 0.46 0.43 0.21 0.12
0.00 0.00 0.00 0.00 0.00 0.00 0.00 0.00 0.00 0.00 0.00 0.00 0.00 0.00 0.01 0.04 0.05 0.04 0.04 0.02 0.02 0.02 0.04 0.04 0.04 0.04 0.03 0.03 0.03 0.11 0.20 0.14 0.01 0.00 0.00 0.00 0.00 0.01 0.14 0.31 0.42 0.82 0.48
0.00 0.00 0.00 0.00 0.00 0.00 0.00 0.00 0.00 0.00 0.00 0.00 0.00 0.00 0.00 0.03 0.06 0.07 0.04 0.03 0.06 0.03 0.05 0.09 0.06 0.05 0.03 0.04 0.04 0.08 0.16 0.16 0.04 0.01 0.00 0.00 0.00 0.03 0.04 0.20 0.33 0.43 0.57
0.00 0.00 0.00 0.00 0.00 0.00 0.00 0.00 0.00 0.00 0.00 0.00 0.00 0.00 0.00 0.00 0.07 0.09 0.05 0.05 0.10 0.07 0.05 0.08 0.05 0.11 0.08 0.08 0.07 0.08 0.08 0.12 0.11 0.04 0.03 0.01 0.00 0.03 0.05 0.12 0.23 0.16 0.33
0.00 0.00 0.00 0.00 0.00 0.00 0.00 0.00 0.00 0.00 0.00 0.00 0.00 0.00 0.00 0.00 0.01 0.07 0.08 0.10 0.11 0.11 0.09 0.10 0.14 0.11 0.11 0.14 0.24 0.13 0.06 0.11 0.10 0.04 0.02 0.02 0.00 0.00 0.03 0.06 0.09 0.07 0.06
0.00 0.00 0.00 0.00 0.00 0.00 0.00 0.00 0.00 0.00 0.00 0.00 0.00 0.00 0.00 0.00 0.00 0.02 0.11 0.13 0.16 0.17 0.22 0.12 0.09 0.07 0.08 0.17 0.22 0.16 0.08 0.07 0.07 0.09 0.04 0.03 0.01 0.00 0.00 0.04 0.06 0.04 0.07
0.00 0.00 0.00 0.00 0.00 0.00 0.00 0.00 0.00 0.00 0.00 0.00 0.00 0.00 0.00 0.00 0.00 0.00 0.04 0.16 0.21 0.21 0.21 0.16 0.13 0.10 0.07 0.09 0.25 0.23 0.15 0.06 0.03 0.03 0.05 0.03 0.01 0.00 0.00 0.01 0.01 0.01 0.04
0.00 0.00 0.00 0.00 0.00 0.00 0.00 0.00 0.00 0.00 0.00 0.00 0.00 0.00 0.00 0.00 0.00 0.00 0.00 0.05 0.16 0.18 0.16 0.15 0.15 0.14 0.20 0.12 0.21 0.26 0.16 0.09 0.06 0.02 0.01 0.02 0.01 0.01 0.00 0.00 0.00 0.00 0.01
0.00 0.00 0.00 0.00 0.00 0.00 0.00 0.00 0.00 0.00 0.00 0.00 0.00 0.00 0.00 0.00 0.00 0.00 0.00 0.00 0.06 0.18 0.19 0.18 0.16 0.18 0.19 0.18 0.12 0.16 0.18 0.11 0.05 0.03 0.01 0.01 0.02 0.01 0.00 0.00 0.00 0.00 0.00
0.00 0.00 0.00 0.00 0.00 0.00 0.00 0.00 0.00 0.00 0.00 0.00 0.00 0.00 0.00 0.00 0.00 0.00 0.00 0.00 0.02 0.32 0.53 0.47 0.30 0.18 0.16 0.21 0.20 0.16 0.08 0.06 0.02 0.02 0.02 0.01 0.00 0.00 0.00 0.00 0.00 0.00 0.00

GFSSE_prec_precacc12_162.txt.gz
Total_Precipitation_Accumulation
0.00 0.00 0.00 0.00 0.00 0.00 0.00 0.00 0.00 0.00 0.00 0.00 0.00 0.00 0.00 0.00 0.00 0.00 0.01 0.01 0.02 0.01 0.00 0.00 0.00 0.00 0.01 0.03 0.05 0.11 0.02 0.00 0.00 0.00 0.01 0.02 0.02 0.00 0.03 0.11 0.08 0.14 0.20
0.01 0.00 0.00 0.00 0.00 0.00 0.00 0.00 0.00 0.00 0.00 0.00 0.00 0.00 0.00 0.00 0.00 0.00 0.01 0.02 0.04 0.02 0.01 0.00 0.00 0.00 0.00 0.01 0.02 0.04 0.00 0.00 0.00 0.00 0.02 0.04 0.05 0.02 0.17 0.19 0.23 0.23 0.25
0.00 0.00 0.01 0.00 0.00 0.00 0.00 0.00 0.00 0.00 0.00 0.00 0.00 0.00 0.00 0.00 0.00 0.00 0.00 0.01 0.05 0.05 0.04 0.00 0.00 0.00 0.00 0.00 0.00 0.01 0.02 0.01 0.04 0.03 0.04 0.07 0.06 0.09 0.16 0.17 0.29 0.23 0.37
0.00 0.00 0.00 0.00 0.00 0.00 0.00 0.00 0.00 0.00 0.00 0.00 0.00 0.00 0.00 0.00 0.00 0.00 0.00 0.00 0.03 0.04 0.05 0.02 0.00 0.00 0.00 0.00 0.00 0.05 0.08 0.08 0.06 0.01 0.04 0.01 0.00 0.06 0.09 0.09 0.18 0.31 0.45
0.00 0.00 0.00 0.00 0.00 0.00 0.00 0.00 0.00 0.00 0.00 0.00 0.00 0.00 0.00 0.00 0.00 0.00 0.00 0.00 0.01 0.02 0.02 0.02 0.02 0.00 0.00 0.00 0.02 0.04 0.05 0.03 0.05 0.04 0.07 0.00 0.02 0.00 0.03 0.09 0.21 0.21 0.28
0.00 0.00 0.01 0.04 0.03 0.01 0.00 0.00 0.00 0.00 0.00 0.00 0.00 0.00 0.00 0.01 0.00 0.00 0.00 0.01 0.02 0.02 0.01 0.02 0.03 0.02 0.00 0.00 0.07 0.05 0.03 0.06 0.10 0.08 0.02 0.00 0.01 0.01 0.00 0.06 0.16 0.19 0.16
0.00 0.00 0.00 0.01 0.03 0.03 0.01 0.00 0.00 0.00 0.00 0.00 0.00 0.00 0.01 0.01 0.01 0.00 0.00 0.00 0.00 0.01 0.01 0.02 0.02 0.01 0.00 0.01 0.09 0.02 0.00 0.06 0.06 0.08 0.00 0.00 0.03 0.09 0.03 0.04 0.10 0.17 0.28
0.00 0.00 0.00 0.00 0.00 0.00 0.00 0.01 0.00 0.00 0.00 0.00 0.00 0.00 0.00 0.01 0.02 0.02 0.02 0.01 0.01 0.00 0.00 0.00 0.00 0.00 0.00 0.01 0.10 0.02 0.00 0.00 0.04 0.03 0.02 0.00 0.02 0.16 0.19 0.28 0.32 0.29 0.30
0.00 0.00 0.00 0.00 0.00 0.00 0.00 0.00 0.00 0.00 0.00 0.00 0.00 0.00 0.00 0.01 0.02 0.03 0.04 0.02 0.01 0.00 0.00 0.00 0.00 0.00 0.00 0.01 0.08 0.03 0.07 0.06 0.06 0.07 0.05 0.00 0.03 0.25 0.55 0.42 0.38 0.30 0.22
0.00 0.00 0.00 0.00 0.00 0.00 0.00 0.00 0.00 0.00 0.00 0.00 0.00 0.00 0.00 0.00 0.01 0.02 0.03 0.03 0.02 0.00 0.00 0.00 0.00 0.00 0.00 0.00 0.03 0.04 0.25 0.18 0.06 0.04 0.05 0.01 0.06 0.39 0.66 0.51 0.34 0.30 0.25
0.00 0.00 0.00 0.00 0.00 0.00 0.00 0.01 0.01 0.02 0.01 0.00 0.00 0.00 0.00 0.00 0.00 0.01 0.01 0.02 0.02 0.01 0.00 0.00 0.00 0.00 0.00 0.00 0.01 0.10 0.18 0.03 0.05 0.03 0.01 0.06 0.07 0.40 0.55 0.48 0.41 0.31 0.17
0.00 0.00 0.00 0.00 0.00 0.00 0.00 0.00 0.00 0.02 0.04 0.02 0.00 0.00 0.00 0.00 0.00 0.01 0.01 0.01 0.02 0.02 0.02 0.01 0.00 0.00 0.00 0.00 0.01 0.02 0.01 0.00 0.02 0.03 0.00 0.02 0.06 0.26 0.52 0.53 0.42 0.34 0.25
0.00 0.00 0.00 0.00 0.00 0.00 0.00 0.00 0.00 0.03 0.05 0.02 0.00 0.00 0.00 0.00 0.00 0.00 0.01 0.01 0.01 0.02 0.02 0.02 0.02 0.00 0.00 0.00 0.00 0.00 0.00 0.00 0.00 0.00 0.00 0.01 0.04 0.30 0.66 0.47 0.60 0.69 0.51
0.00 0.00 0.00 0.00 0.00 0.00 0.00 0.00 0.00 0.00 0.02 0.03 0.01 0.00 0.00 0.00 0.00 0.00 0.00 0.01 0.01 0.02 0.02 0.03 0.03 0.02 0.00 0.00 0.00 0.00 0.00 0.00 0.00 0.00 0.00 0.00 0.04 0.21 0.50 0.47 0.43 0.44 0.56
0.00 0.00 0.00 0.00 0.00 0.00 0.00 0.00 0.00 0.00 0.00 0.00 0.00 0.00 0.00 0.01 0.01 0.01 0.01 0.01 0.01 0.02 0.02 0.03 0.03 0.02 0.01 0.00 0.00 0.00 0.00 0.00 0.00 0.00 0.00 0.00 0.05 0.15 0.31 0.28 0.35 0.41 0.30
0.00 0.00 0.00 0.00 0.00 0.00 0.00 0.00 0.00 0.00 0.00 0.00 0.00 0.00 0.00 0.00 0.01 0.01 0.01 0.01 0.01 0.02 0.02 0.03 0.02 0.02 0.02 0.02 0.01 0.01 0.00 0.00 0.00 0.00 0.00 0.00 0.01 0.08 0.32 0.36 0.21 0.34 0.51
0.00 0.00 0.00 0.00 0.00 0.00 0.00 0.00 0.00 0.00 0.00 0.00 0.00 0.00 0.00 0.00 0.01 0.02 0.02 0.01 0.02 0.02 0.03 0.04 0.04 0.04 0.03 0.02 0.01 0.02 0.00 0.00 0.00 0.00 0.00 0.00 0.00 0.05 0.28 0.52 0.55 0.27 0.19
0.00 0.00 0.00 0.00 0.00 0.00 0.00 0.00 0.00 0.00 0.00 0.00 0.00 0.00 0.00 0.00 0.01 0.02 0.03 0.02 0.02 0.02 0.04 0.04 0.04 0.03 0.03 0.04 0.02 0.03 0.03 0.02 0.01 0.00 0.00 0.00 0.00 0.01 0.13 0.31 0.48 0.97 0.67
0.00 0.00 0.00 0.00 0.00 0.00 0.00 0.00 0.00 0.00 0.00 0.00 0.00 0.00 0.00 0.00 0.00 0.00 0.02 0.03 0.06 0.03 0.05 0.09 0.06 0.05 0.03 0.03 0.03 0.03 0.07 0.09 0.05 0.04 0.01 0.00 0.00 0.03 0.03 0.19 0.31 0.41 0.58
0.00 0.00 0.00 0.00 0.00 0.00 0.00 0.00 0.00 0.00 0.00 0.00 0.00 0.00 0.00 0.00 0.00 0.00 0.00 0.02 0.09 0.06 0.05 0.08 0.05 0.11 0.08 0.08 0.06 0.04 0.04 0.08 0.11 0.10 0.07 0.02 0.00 0.03 0.04 0.12 0.21 0.14 0.27
0.00 0.00 0.00 0.00 0.00 0.00 0.00 0.00 0.00 0.00 0.00 0.00 0.00 0.00 0.00 0.00 0.00 0.00 0.00 0.00 0.03 0.09 0.09 0.10 0.14 0.11 0.11 0.14 0.22 0.10 0.03 0.06 0.07 0.06 0.05 0.04 0.01 0.01 0.04 0.09 0.14 0.09 0.07
0.00 0.00 0.00 0.00 0.00 0.00 0.00 0.00 0.00 0.00 0.00 0.00 0.00 0.00 0.00 0.00 0.00 0.00 0.00 0.00 0.00 0.05 0.16 0.12 0.09 0.07 0.08 0.17 0.22 0.16 0.07 0.04 0.04 0.06 0.05 0.04 0.01 0.02 0.02 0.06 0.10 0.07 0.10
0.00 0.00 0.00 0.00 0.00 0.00 0.00 0.00 0.00 0.00 0.00 0.00 0.00 0.00 0.00 0.00 0.00 0.00 0.00 0.00 0.00 0.01 0.09 0.16 0.13 0.11 0.07 0.09 0.25 0.23 0.16 0.06 0.05 0.04 0.05 0.03 0.01 0.00 0.01 0.03 0.04 0.04 0.07
0.00 0.00 0.00 0.00 0.00 0.00 0.00 0.00 0.00 0.00 0.00 0.00 0.00 0.00 0.00 0.00 0.00 0.00 0.00 0.00 0.00 0.01 0.03 0.11 0.15 0.13 0.19 0.11 0.22 0.26 0.17 0.11 0.12 0.09 0.09 0.07 0.04 0.01 0.01 0.01 0.01 0.02 0.04
0.00 0.00 0.00 0.00 0.00 0.00 0.00 0.00 0.00 0.00 0.00 0.00 0.00 0.00 0.00 0.00 0.00 0.00 0.00 0.00 0.00 0.01 0.01 0.04 0.12 0.16 0.19 0.18 0.13 0.16 0.18 0.11 0.06 0.07 0.06 0.07 0.08 0.04 0.01 0.01 0.00 0.00 0.01
0.00 0.00 0.00 0.00 0.00 0.00 0.00 0.00 0.00 0.00 0.00 0.00 0.00 0.00 0.00 0.00 0.00 0.00 0.00 0.00 0.00 0.01 0.01 0.02 0.07 0.14 0.15 0.20 0.20 0.16 0.08 0.06 0.03 0.03 0.05 0.05 0.04 0.04 0.03 0.02 0.01 0.01 0.00

GFSSE_prec_precacc12_165.txt.gz
Total_Precipitation_Accumulation
0.01 0.00 0.00 0.00 0.00 0.00 0.00 0.00 0.00 0.00 0.00 0.00 0.00 0.00 0.00 0.00 0.00 0.00 0.01 0.01 0.02 0.01 0.00 0.00 0.00 0.00 0.01 0.03 0.05 0.10 0.02 0.00 0.00 0.00 0.00 0.01 0.01 0.00 0.02 0.07 0.06 0.13 0.12
0.01 0.00 0.00 0.00 0.00 0.00 0.00 0.00 0.00 0.00 0.00 0.00 0.00 0.00 0.00 0.00 0.00 0.00 0.01 0.02 0.03 0.01 0.01 0.00 0.00 0.00 0.00 0.01 0.02 0.04 0.00 0.00 0.00 0.00 0.01 0.02 0.02 0.01 0.10 0.10 0.17 0.21 0.19
0.00 0.00 0.01 0.00 0.00 0.00 0.00 0.00 0.00 0.00 0.00 0.00 0.00 0.00 0.00 0.00 0.00 0.00 0.00 0.01 0.03 0.03 0.02 0.00 0.00 0.00 0.00 0.00 0.00 0.00 0.00 0.00 0.00 0.01 0.04 0.09 0.07 0.05 0.05 0.05 0.11 0.14 0.28
0.00 0.00 0.00 0.00 0.00 0.00 0.00 0.00 0.00 0.00 0.00 0.00 0.00 0.00 0.00 0.00 0.00 0.00 0.00 0.00 0.03 0.03 0.02 0.01 0.00 0.00 0.00 0.00 0.00 0.00 0.00 0.00 0.04 0.01 0.08 0.09 0.07 0.03 0.00 0.00 0.06 0.23 0.42
0.00 0.00 0.01 0.00 0.00 0.00 0.00 0.00 0.00 0.00 0.00 0.00 0.00 0.00 0.00 0.00 0.00 0.00 0.00 0.00 0.01 0.02 0.01 0.02 0.02 0.00 0.00 0.00 0.01 0.00 0.00 0.00 0.05 0.05 0.10 0.06 0.02 0.01 0.00 0.03 0.09 0.17 0.28
0.00 0.00 0.00 0.01 0.01 0.01 0.00 0.00 0.00 0.00 0.00 0.00 0.00 0.00 0.00 0.01 0.00 0.00 0.00 0.01 0.02 0.02 0.01 0.02 0.03 0.03 0.00 0.00 0.03 0.00 0.00 0.06 0.10 0.15 0.04 0.08 0.04 0.02 0.00 0.03 0.09 0.14 0.17
0.00 0.00 0.00 0.00 0.00 0.01 0.00 0.00 0.00 0.00 0.00 0.00 0.00 0.00 0.01 0.01 0.01 0.00 0.00 0.00 0.00 0.01 0.01 0.01 0.01 0.01 0.00 0.00 0.02 0.00 0.00 0.06 0.03 0.13 0.02 0.04 0.05 0.04 0.03 0.03 0.05 0.12 0.23
0.00 0.00 0.00 0.00 0.00 0.00 0.00 0.01 0.00 0.00 0.00 0.00 0.00 0.00 0.00 0.01 0.02 0.02 0.02 0.01 0.01 0.00 0.00 0.00 0.00 0.00 0.00 0.00 0.01 0.00 0.00 0.00 0.01 0.05 0.05 0.02 0.05 0.06 0.17 0.22 0.15 0.19 0.20
0.00 0.00 0.00 0.00 0.00 0.00 0.00 0.00 0.00 0.00 0.00 0.00 0.00 0.00 0.00 0.01 0.02 0.03 0.04 0.02 0.01 0.00 0.00 0.00 0.00 0.00 0.00 0.00 0.00 0.00 0.02 0.05 0.04 0.09 0.08 0.02 0.07 0.25 0.45 0.26 0.18 0.20 0.15
0.00 0.00 0.00 0.00 0.00 0.00 0.00 0.00 0.00 0.00 0.00 0.00 0.00 0.00 0.00 0.00 0.01 0.02 0.03 0.03 0.02 0.00 0.00 0.00 0.00 0.00 0.00 0.00 0.00 0.00 0.06 0.15 0.05 0.04 0.06 0.06 0.05 0.35 0.63 0.35 0.23 0.22 0.21
0.00 0.00 0.00 0.00 0.00 0.00 0.00 0.00 0.01 0.02 0.01 0.00 0.00 0.00 0.00 0.00 0.00 0.01 0.01 0.02 0.02 0.01 0.00 0.00 0.00 0.00 0.00 0.00 0.00 0.00 0.03 0.01 0.05 0.03 0.01 0.10 0.03 0.25 0.50 0.33 0.29 0.27 0.20
0.00 0.00 0.00 0.00 0.00 0.00 0.00 0.00 0.00 0.01 0.02 0.02 0.00 0.00 0.00 0.00 0.00 0.01 0.01 0.01 0.02 0.02 0.02 0.01 0.00 0.00 0.00 0.00 0.00 0.00 0.00 0.00 0.02 0.03 0.00 0.03 0.04 0.25 0.48 0.43 0.34 0.36 0.38
0.00 0.00 0.00 0.00 0.00 0.00 0.00 0.00 0.00 0.00 0.00 0.00 0.00 0.00 0.00 0.00 0.00 0.00 0.01 0.01 0.01 0.02 0.02 0.02 0.02 0.01 0.00 0.00 0.00 0.00 0.00 0.00 0.00 0.00 0.00 0.01 0.02 0.25 0.56 0.44 0.60 0.75 0.61
0.00 0.00 0.00 0.00 0.00 0.00 0.00 0.00 0.00 0.00 0.00 0.00 0.00 0.00 0.00 0.00 0.00 0.00 0.00 0.01 0.01 0.02 0.02 0.03 0.03 0.02 0.01 0.00 0.00 0.00 0.00 0.00 0.00 0.00 0.00 0.00 0.02 0.13 0.41 0.42 0.47 0.48 0.61
0.00 0.00 0.00 0.00 0.00 0.00 0.00 0.00 0.00 0.00 0.00 0.00 0.00 0.00 0.00 0.00 0.00 0.00 0.00 0.01 0.01 0.02 0.02 0.03 0.03 0.03 0.02 0.01 0.01 0.01 0.01 0.00 0.00 0.00 0.00 0.00 0.04 0.09 0.24 0.26 0.39 0.44 0.31
0.00 0.00 0.00 0.00 0.00 0.00 0.00 0.00 0.00 0.00 0.00 0.00 0.00 0.00 0.00 0.00 0.00 0.00 0.00 0.00 0.01 0.01 0.02 0.03 0.02 0.02 0.02 0.03 0.02 0.03 0.04 0.03 0.01 0.01 0.00 0.00 0.01 0.04 0.22 0.32 0.24 0.35 0.51
0.00 0.00 0.00 0.00 0.00 0.00 0.00 0.00 0.00 0.00 0.00 0.00 0.00 0.00 0.00 0.00 0.00 0.00 0.00 0.00 0.01 0.01 0.02 0.02 0.03 0.04 0.03 0.02 0.02 0.02 0.02 0.03 0.03 0.02 0.01 0.00 0.00 0.01 0.17 0.48 0.55 0.28 0.23
0.00 0.00 0.00 0.00 0.00 0.00 0.00 0.00 0.00 0.00 0.00 0.00 0.00 0.00 0.00 0.00 0.00 0.00 0.00 0.00 0.01 0.01 0.01 0.02 0.03 0.03 0.03 0.03 0.01 0.01 0.01 0.02 0.04 0.04 0.03 0.01 0.00 0.00 0.07 0.27 0.47 1.04 0.77
0.00 0.00 0.00 0.00 0.00 0.00 0.00 0.00 0.00 0.00 0.00 0.00 0.00 0.00 0.00 0.00 0.00 0.00 0.00 0.00 0.00 0.00 0.01 0.03 0.03 0.03 0.02 0.02 0.02 0.01 0.02 0.03 0.05 0.07 0.06 0.08 0.03 0.00 0.02 0.18 0.31 0.42 0.61
0.00 0.00 0.00 0.00 0.00 0.00 0.00 0.00 0.00 0.00 0.00 0.00 0.00 0.00 0.00 0.00 0.00 0.00 0.00 0.00 0.00 0.00 0.00 0.02 0.03 0.07 0.06 0.07 0.05 0.02 0.02 0.03 0.04 0.09 0.09 0.09 0.06 0.05 0.01 0.09 0.20 0.14 0.27
0.00 0.00 0.00 0.00 0.00 0.00 0.00 0.00 0.00 0.00 0.00 0.00 0.00 0.00 0.00 0.00 0.00 0.00 0.00 0.00 0.00 0.00 0.00 0.01 0.04 0.07 0.09 0.11 0.20 0.09 0.02 0.03 0.03 0.04 0.06 0.06 0.06 0.08 0.08 0.11 0.20 0.13 0.08
0.00 0.00 0.00 0.00 0.00 0.00 0.00 0.00 0.00 0.00 0.00 0.00 0.00 0.00 0.00 0.00 0.00 0.00 0.00 0.00 0.00 0.00 0.00 0.00 0.01 0.04 0.06 0.12 0.19 0.15 0.05 0.02 0.02 0.02 0.02 0.03 0.04 0.09 0.10 0.18 0.18 0.15 0.14
0.00 0.00 0.00 0.00 0.00 0.00 0.00 0.00 0.00 0.00 0.00 0.00 0.00 0.00 0.00 0.00 0.00 0.00 0.00 0.00 0.00 0.00 0.00 0.00 0.01 0.02 0.05 0.07 0.21 0.23 0.16 0.05 0.05 0.02 0.02 0.03 0.04 0.03 0.05 0.16 0.16 0.15 0.15
0.00 0.00 0.00 0.00 0.00 0.00 0.00 0.00 0.00 0.00 0.00 0.00 0.00 0.00 0.00 0.00 0.00 0.00 0.00 0.00 0.00 0.00 0.00 0.01 0.00 0.01 0.06 0.09 0.17 0.23 0.17 0.11 0.12 0.09 0.09 0.12 0.15 0.09 0.09 0.16 0.16 0.11 0.12
0.00 0.00 0.00 0.00 0.00 0.00 0.00 0.00 0.00 0.00 0.00 0.00 0.00 0.00 0.00 0.00 0.00 0.00 0.00 0.00 0.00 0.01 0.01 0.01 0.01 0.01 0.03 0.11 0.12 0.15 0.18 0.12 0.06 0.07 0.06 0.07 0.10 0.10 0.12 0.12 0.18 0.19 0.16
0.00 0.00 0.00 0.00 0.00 0.00 0.00 0.00 0.00 0.00 0.00 0.00 0.00 0.00 0.00 0.00 0.00 0.00 0.00 0.00 0.00 0.01 0.01 0.01 0.01 0.01 0.02 0.05 0.14 0.13 0.08 0.07 0.03 0.03 0.05 0.05 0.04 0.06 0.10 0.11 0.08 0.08 0.13